| time (UTC) | temp C | wind direction | speed KPH | gust KPH | rain 1hr cm | rain 24hr cm | rain mn cm | humidity % | barometer mb |
| 20260506204900 | 8 | 110 | 14.5 | 0.0 | 0.00 | 0.00 | 0.00 | 100 | 1016.0 |
| 20260506203359 | 8 | 110 | 14.5 | 0.0 | 0.00 | 0.00 | 0.00 | 100 | 1016.0 |
| 20260506201853 | 8 | 110 | 14.5 | 0.0 | 0.00 | 0.00 | 0.00 | 100 | 1016.0 |
| 20260506200359 | 8 | 110 | 14.5 | 0.0 | 0.00 | 0.00 | 0.00 | 100 | 1016.0 |
| 20260506194916 | 11 | 110 | 14.5 | 0.0 | 0.00 | 0.00 | 0.00 | 94 | 1016.0 |
| 20260506193423 | 11 | 110 | 14.5 | 0.0 | 0.00 | 0.00 | 0.00 | 94 | 1016.0 |
| 20260506191900 | 11 | 110 | 14.5 | 0.0 | 0.00 | 0.00 | 0.00 | 94 | 1016.0 |
| 20260506190400 | 11 | 110 | 14.5 | 0.0 | 0.00 | 0.00 | 0.00 | 94 | 1016.0 |
| 20260506184902 | 12 | 110 | 14.5 | 0.0 | 0.00 | 0.00 | 0.00 | 82 | 1015.0 |
| 20260506183359 | 12 | 110 | 14.5 | 0.0 | 0.00 | 0.00 | 0.00 | 82 | 1015.0 |
| 20260506181900 | 12 | 110 | 14.5 | 0.0 | 0.00 | 0.00 | 0.00 | 82 | 1015.0 |
| 20260506180400 | -17 | 0.0 | 0.0 | 0.00 | 0.00 | 0.00 | |||
| 20260506174900 | 17 | 130 | 14.5 | 0.0 | 0.00 | 0.00 | 0.00 | 56 | 1015.0 |
| 20260506173359 | 17 | 130 | 14.5 | 0.0 | 0.00 | 0.00 | 0.00 | 56 | 1015.0 |
| 20260506171900 | 17 | 130 | 14.5 | 0.0 | 0.00 | 0.00 | 0.00 | 56 | 1015.0 |
| 20260506170359 | 17 | 130 | 14.5 | 0.0 | 0.00 | 0.00 | 0.00 | 56 | 1015.0 |
| 20260506164859 | 20 | 130 | 17.7 | 0.0 | 0.00 | 0.00 | 0.00 | 49 | 1015.0 |
| 20260506163359 | 20 | 130 | 17.7 | 0.0 | 0.00 | 0.00 | 0.00 | 49 | 1015.0 |
| 20260506161900 | 20 | 130 | 17.7 | 0.0 | 0.00 | 0.00 | 0.00 | 49 | 1015.0 |
| 20260506160359 | 20 | 130 | 17.7 | 0.0 | 0.00 | 0.00 | 0.00 | 49 | 1015.0 |
| 20260506154900 | 21 | 140 | 22.5 | 0.0 | 0.00 | 0.00 | 0.00 | 40 | 1015.0 |
| 20260506153359 | 21 | 140 | 22.5 | 0.0 | 0.00 | 0.00 | 0.00 | 40 | 1015.0 |
| 20260506151859 | 21 | 140 | 22.5 | 0.0 | 0.00 | 0.00 | 0.00 | 40 | 1015.0 |
| 20260506150405 | 21 | 140 | 22.5 | 0.0 | 0.00 | 0.00 | 0.00 | 40 | 1015.0 |
| 20260506144900 | 22 | 140 | 22.5 | 0.0 | 0.00 | 0.00 | 0.00 | 44 | 1015.0 |
| 20260506143411 | 22 | 140 | 22.5 | 0.0 | 0.00 | 0.00 | 0.00 | 44 | 1015.0 |
| 20260506141859 | 22 | 140 | 22.5 | 0.0 | 0.00 | 0.00 | 0.00 | 44 | 1015.0 |
| 20260506140523 | -17 | 0.0 | 0.0 | 0.00 | 0.00 | 0.00 | |||
| 20260506134924 | 21 | 120 | 25.7 | 0.0 | 0.00 | 0.00 | 0.00 | 43 | 1015.0 |
| 20260506133359 | 21 | 120 | 25.7 | 0.0 | 0.00 | 0.00 | 0.00 | 43 | 1015.0 |
| 20260506131856 | 21 | 120 | 25.7 | 0.0 | 0.00 | 0.00 | 0.00 | 43 | 1015.0 |
| 20260506130408 | 21 | 120 | 25.7 | 0.0 | 0.00 | 0.00 | 0.00 | 43 | 1015.0 |
| 20260506124900 | 22 | 130 | 17.7 | 0.0 | 0.00 | 0.00 | 0.00 | 41 | 1016.0 |
| 20260506123359 | 22 | 130 | 17.7 | 0.0 | 0.00 | 0.00 | 0.00 | 41 | 1016.0 |
| 20260506121900 | 22 | 130 | 17.7 | 0.0 | 0.00 | 0.00 | 0.00 | 41 | 1016.0 |
| 20260506120359 | 22 | 130 | 17.7 | 0.0 | 0.00 | 0.00 | 0.00 | 41 | 1016.0 |
| 20260506114859 | 21 | 150 | 17.7 | 0.0 | 0.00 | 0.00 | 0.00 | 50 | 1016.0 |
| 20260506113400 | 21 | 150 | 17.7 | 0.0 | 0.00 | 0.00 | 0.00 | 50 | 1016.0 |
| 20260506111859 | 21 | 150 | 17.7 | 0.0 | 0.00 | 0.00 | 0.00 | 50 | 1016.0 |
| 20260506110359 | 21 | 150 | 17.7 | 0.0 | 0.00 | 0.00 | 0.00 | 50 | 1016.0 |
| 20260506104859 | 21 | 120 | 22.5 | 0.0 | 0.00 | 0.00 | 0.00 | 43 | 1017.0 |
| 20260506103400 | 21 | 120 | 22.5 | 0.0 | 0.00 | 0.00 | 0.00 | 43 | 1017.0 |
| 20260506101900 | 21 | 120 | 22.5 | 0.0 | 0.00 | 0.00 | 0.00 | 43 | 1017.0 |
| 20260506100400 | 21 | 120 | 22.5 | 0.0 | 0.00 | 0.00 | 0.00 | 43 | 1017.0 |
| 20260506094900 | 20 | 130 | 11.3 | 0.0 | 0.00 | 0.00 | 0.00 | 43 | 1016.0 |
| 20260506093359 | 20 | 130 | 11.3 | 0.0 | 0.00 | 0.00 | 0.00 | 43 | 1016.0 |
| 20260506091859 | 20 | 130 | 11.3 | 0.0 | 0.00 | 0.00 | 0.00 | 43 | 1016.0 |
| 20260506090359 | 20 | 130 | 11.3 | 0.0 | 0.00 | 0.00 | 0.00 | 43 | 1016.0 |
| 20260506084900 | 18 | 120 | 11.3 | 0.0 | 0.00 | 0.00 | 0.00 | 46 | 1016.0 |
| 20260506083359 | 18 | 120 | 11.3 | 0.0 | 0.00 | 0.00 | 0.00 | 46 | 1016.0 |
| 20260506081856 | 18 | 120 | 11.3 | 0.0 | 0.00 | 0.00 | 0.00 | 46 | 1016.0 |
| 20260506080359 | 18 | 120 | 11.3 | 0.0 | 0.00 | 0.00 | 0.00 | 46 | 1016.0 |
| 20260506073400 | 17 | 150 | 9.7 | 0.0 | 0.00 | 0.00 | 0.00 | 49 | 1016.0 |
| 20260506071859 | 17 | 150 | 9.7 | 0.0 | 0.00 | 0.00 | 0.00 | 49 | 1016.0 |
| 20260506070359 | 17 | 150 | 9.7 | 0.0 | 0.00 | 0.00 | 0.00 | 49 | 1016.0 |
| 20260506061900 | 15 | 150 | 11.3 | 0.0 | 0.00 | 0.00 | 0.00 | 55 | 1016.0 |
| 20260506060401 | 15 | 150 | 11.3 | 0.0 | 0.00 | 0.00 | 0.00 | 55 | 1016.0 |
| 20260506050413 | 10 | 160 | 9.7 | 0.0 | 0.00 | 0.00 | 0.00 | 71 | 1015.0 |
| 20260506044915 | 6 | 120 | 12.9 | 0.0 | 0.00 | 0.00 | 0.00 | 87 | 1015.0 |
| 20260506043403 | 6 | 120 | 12.9 | 0.0 | 0.00 | 0.00 | 0.00 | 87 | 1015.0 |
| 20260506041900 | 6 | 120 | 12.9 | 0.0 | 0.00 | 0.00 | 0.00 | 87 | 1015.0 |
| 20260506040359 | 6 | 120 | 12.9 | 0.0 | 0.00 | 0.00 | 0.00 | 87 | 1015.0 |
| 20260506034900 | 5 | 140 | 11.3 | 0.0 | 0.00 | 0.00 | 0.00 | 87 | 1015.0 |
| 20260506033359 | 5 | 140 | 11.3 | 0.0 | 0.00 | 0.00 | 0.00 | 87 | 1015.0 |
| 20260506031859 | 5 | 140 | 11.3 | 0.0 | 0.00 | 0.00 | 0.00 | 87 | 1015.0 |
| 20260506030359 | 5 | 140 | 11.3 | 0.0 | 0.00 | 0.00 | 0.00 | 87 | 1015.0 |
| 20260506024859 | 7 | 170 | 14.5 | 0.0 | 0.00 | 0.00 | 0.00 | 87 | 1016.0 |
| 20260506023359 | 7 | 170 | 14.5 | 0.0 | 0.00 | 0.00 | 0.00 | 87 | 1016.0 |
| 20260506021857 | -17 | 0.0 | 0.0 | 0.00 | 0.00 | 0.00 | |||
| 20260506020359 | -17 | 0.0 | 0.0 | 0.00 | 0.00 | 0.00 | |||
| 20260506014859 | 7 | 170 | 14.5 | 0.0 | 0.00 | 0.00 | 0.00 | 87 | 1016.0 |
| 20260506013359 | 7 | 170 | 14.5 | 0.0 | 0.00 | 0.00 | 0.00 | 87 | 1016.0 |
| 20260506011900 | 7 | 170 | 14.5 | 0.0 | 0.00 | 0.00 | 0.00 | 87 | 1016.0 |
| 20260506010359 | 7 | 170 | 14.5 | 0.0 | 0.00 | 0.00 | 0.00 | 87 | 1016.0 |
| 20260506004856 | 7 | 170 | 14.5 | 0.0 | 0.00 | 0.00 | 0.00 | 87 | 1016.0 |
| 20260506003523 | -17 | 0.0 | 0.0 | 0.00 | 0.00 | 0.00 | |||
| 20260506001900 | 7 | 160 | 14.5 | 0.0 | 0.00 | 0.00 | 0.00 | 87 | 1016.0 |
| 20260506000401 | 7 | 160 | 14.5 | 0.0 | 0.00 | 0.00 | 0.00 | 87 | 1016.0 |
| 20260505234900 | -17 | 0.0 | 0.0 | 0.00 | 0.00 | 0.00 | |||
| 20260505233359 | -17 | 0.0 | 0.0 | 0.00 | 0.00 | 0.00 | |||
| 20260505231859 | -17 | 0.0 | 0.0 | 0.00 | 0.00 | 0.00 | |||
| 20260505230400 | -17 | 0.0 | 0.0 | 0.00 | 0.00 | 0.00 | |||
| 20260505224900 | 8 | 150 | 12.9 | 0.0 | 0.00 | 0.00 | 0.00 | 82 | 1016.0 |
| 20260505223359 | 8 | 150 | 12.9 | 0.0 | 0.00 | 0.00 | 0.00 | 82 | 1016.0 |
| 20260505221857 | 8 | 150 | 12.9 | 0.0 | 0.00 | 0.00 | 0.00 | 82 | 1016.0 |
| 20260505220400 | 8 | 150 | 12.9 | 0.0 | 0.00 | 0.00 | 0.00 | 82 | 1016.0 |
| 20260505214900 | 8 | 150 | 12.9 | 0.0 | 0.00 | 0.00 | 0.00 | 82 | 1016.0 |
| 20260505213400 | 10 | 140 | 14.5 | 0.0 | 0.00 | 0.00 | 0.00 | 76 | 1016.0 |
| 20260505211859 | 10 | 140 | 14.5 | 0.0 | 0.00 | 0.00 | 0.00 | 76 | 1016.0 |
| 20260505210400 | 10 | 140 | 14.5 | 0.0 | 0.00 | 0.00 | 0.00 | 76 | 1016.0 |